Temp
9 9 9 9 8 8 8 8 8 8 8 8 7 7 7 8 8 7 7 7 7 7 7 7 8 8 7 7 7 7 7 7 7 7 7 6 6 6 6 5 5 6 6
9 9 9 9 8 8 8 7 7 7 7 7 7 7 7 7 7 7 7 7 7 7 7 7 7 7 7 7 7 7 7 7 7 7 6 7 6 6 6 6 6 6 6
8 9 9 9 8 7 7 8 7 7 7 6 6 6 6 6 6 7 7 6 7 7 7 7 7 7 7 6 6 6 7 6 6 6 6 6 6 6 6 6 6 6 6
8 8 8 8 8 8 7 7 7 7 7 6 5 5 5 5 6 6 7 6 6 7 7 7 7 7 7 7 7 6 7 6 6 6 6 6 6 6 6 6 6 6 6
8 8 8 8 8 7 7 6 6 6 6 6 5 5 5 5 5 6 6 6 6 7 7 6 6 6 6 6 6 6 6 6 6 6 6 6 6 6 6 5 6 6 5
7 7 8 7 7 7 7 6 6 6 6 6 4 4 4 4 5 5 6 6 6 6 6 6 6 6 6 6 5 6 6 6 6 6 5 6 5 5 6 6 5 6 6
7 7 7 7 6 7 6 5 5 6 6 5 4 4 4 4 4 5 5 6 6 6 5 5 5 5 5 5 5 6 6 6 5 5 5 5 5 5 5 5 5 5 5
7 7 7 7 6 6 6 5 5 5 5 4 4 4 4 4 3 4 5 5 5 5 5 5 5 5 5 5 5 6 6 6 5 5 5 5 5 5 5 5 5 5 5
7 7 6 6 6 6 6 5 5 5 4 5 5 4 4 4 3 3 4 4 4 5 5 4 4 4 4 5 5 6 6 5 5 5 5 5 5 4 4 4 4 4 5
7 6 6 6 6 6 5 5 5 5 4 3 2 3 4 2 4 3 4 3 4 4 4 4 3 4 4 4 4 5 5 5 5 5 5 4 4 4 4 4 4 4 4
6 5 5 5 5 5 5 4 5 4 4 2 2 2 3 3 3 3 4 4 4 4 4 4 3 3 4 3 4 4 5 4 4 5 4 4 4 4 4 4 4 4 4
6 6 5 6 6 5 5 4 4 3 3 2 2 1 3 3 3 3 4 3 3 3 3 3 3 3 4 3 3 5 5 3 5 5 4 4 4 4 4 4 4 4 4
7 6 6 6 5 4 4 4 4 4 3 3 3 3 3 2 2 3 4 3 3 3 4 3 3 3 3 3 3 5 4 4 4 4 4 4 4 4 4 4 4 4 4
7 7 6 6 6 4 4 4 4 4 3 3 3 2 3 3 3 2 2 3 3 4 3 3 3 3 3 2 3 4 4 4 4 3 3 3 3 3 3 4 4 3 3
7 7 6 5 5 5 4 3 3 3 4 3 2 2 2 2 3 3 2 1 2 3 3 3 3 3 2 2 2 4 4 3 3 3 3 3 3 3 3 3 3 3 3
7 7 6 5 5 5 4 3 3 2 2 3 2 2 2 2 3 2 2 2 3 2 3 3 3 2 3 2 2 3 4 3 3 3 3 3 3 3 3 3 3 3 3
7 7 6 5 4 4 3 4 3 3 2 2 3 3 2 2 2 2 2 2 2 2 2 2 2 2 2 2 1 3 4 3 3 3 3 2 2 2 2 2 2 2 2
7 6 6 5 3 3 3 3 3 3 3 3 2 2 2 2 2 2 2 1 1 1 2 2 2 2 2 2 2 2 3 2 2 2 2 2 2 2 2 1 1 2 2
7 6 6 5 4 3 3 3 2 3 2 2 2 2 2 2 2 1 1 1 1 1 2 2 2 2 2 2 1 1 2 2 1 1 1 2 2 1 1 1 1 2 2
7 7 6 6 4 3 2 3 2 2 2 2 1 1 2 2 2 1 1 1 1 1 1 2 2 2 2 2 1 1 1 1 1 1 1 1 1 1 1 1 1 1 2
7 7 6 6 5 3 2 2 2 3 2 1 1 2 1 1 1 1 0 0 1 -0 1 1 2 1 2 1 1 1 0 0 0 1 2 2 2 2 1 1 1 1 1
7 7 6 6 6 4 3 2 2 2 2 1 2 2 1 1 1 1 1 0 0 -0 -0 -1 1 2 1 1 1 1 0 1 1 1 1 1 1 1 1 1 1 1 1
7 7 6 6 6 5 4 3 3 4 3 2 2 2 1 1 1 1 0 0 -0 0 -0 -1 1 1 -0 -1 0 1 1 1 1 0 0 0 0 0 1 1 1 1 1
7 7 7 7 6 6 4 3 4 4 5 1 2 2 1 1 1 -0 0 0 0 -0 -2 0 0 1 -1 -2 -1 -0 0 0 0 0 0 0 0 0 0 0 1 1 1
8 7 7 7 6 6 5 4 4 4 4 1 1 1 0 0 0 -1 1 0 -1 -2 -1 0 1 1 -1 -1 -0 -0 0 -0 -0 0 -0 -1 -0 0 -0 0 0 1 1
8 7 7 7 7 7 6 5 4 3 3 2 1 1 1 0 -0 -0 0 -0 -1 -1 -1 -0 -0 -1 -1 -1 -0 -0 -0 -0 -0 -0 -0 -0 0 -0 -0 -0 -0 0 -0
Height
3131 3131 3132 3132 3132 3134 3136 3137 3138 3138 3140 3142 3143 3144 3145 3146 3147 3148 3149 3151 3153 3155 3156 3157 3158 3158 3159 3160 3161 3162 3164 3165 3167 3168 3169 3170 3172 3174 3174 3175 3176 3177 3178
3130 3130 3131 3130 3131 3133 3134 3135 3136 3136 3138 3140 3142 3142 3143 3144 3145 3146 3148 3150 3151 3154 3156 3156 3157 3158 3159 3160 3161 3163 3163 3165 3166 3168 3169 3171 3172 3173 3174 3175 3176 3177 3178
3128 3128 3129 3130 3129 3129 3131 3132 3133 3134 3135 3137 3139 3141 3142 3143 3145 3145 3147 3148 3150 3153 3155 3156 3157 3159 3160 3160 3161 3163 3163 3164 3166 3168 3169 3170 3171 3172 3173 3175 3176 3177 3177
3123 3126 3126 3126 3126 3127 3128 3129 3129 3130 3132 3134 3136 3138 3141 3143 3144 3144 3145 3147 3148 3151 3154 3155 3156 3158 3160 3161 3161 3161 3163 3164 3166 3167 3169 3170 3171 3173 3173 3175 3175 3177 3178
3116 3120 3121 3121 3121 3123 3125 3126 3127 3128 3129 3131 3134 3136 3138 3140 3143 3143 3144 3145 3148 3150 3153 3154 3156 3157 3159 3161 3161 3162 3163 3164 3166 3167 3169 3170 3173 3174 3175 3177 3178 3178 3179
3115 3112 3116 3116 3117 3118 3121 3122 3124 3126 3127 3129 3131 3133 3134 3136 3139 3142 3143 3144 3146 3148 3151 3154 3156 3157 3159 3159 3160 3162 3162 3165 3167 3168 3169 3171 3173 3175 3176 3176 3177 3179 3180
3114 3109 3109 3111 3112 3113 3115 3117 3120 3122 3123 3125 3127 3130 3131 3134 3136 3140 3140 3142 3145 3147 3149 3152 3155 3157 3159 3157 3159 3160 3161 3166 3168 3167 3170 3172 3173 3175 3176 3177 3178 3179 3179
3110 3105 3105 3106 3107 3108 3111 3111 3115 3118 3118 3120 3121 3127 3130 3130 3132 3137 3137 3140 3142 3146 3149 3151 3154 3156 3157 3158 3158 3157 3161 3167 3168 3168 3170 3173 3174 3175 3176 3177 3178 3179 3181
3103 3100 3099 3100 3101 3103 3105 3106 3106 3110 3107 3105 3108 3119 3125 3127 3128 3132 3135 3139 3142 3144 3148 3151 3152 3155 3156 3157 3156 3158 3164 3166 3167 3169 3172 3174 3174 3175 3176 3177 3178 3180 3181
3094 3091 3091 3093 3096 3097 3099 3100 3102 3105 3105 3105 3105 3112 3120 3115 3125 3130 3134 3137 3140 3143 3146 3148 3153 3153 3156 3156 3156 3160 3163 3166 3168 3169 3172 3173 3175 3175 3177 3179 3180 3181 3182
3087 3085 3086 3089 3091 3091 3094 3094 3098 3102 3103 3103 3107 3105 3116 3120 3123 3128 3131 3136 3138 3141 3145 3148 3150 3151 3154 3156 3158 3158 3162 3166 3166 3169 3172 3174 3174 3176 3178 3179 3180 3182 3183
3085 3084 3084 3086 3087 3087 3089 3091 3094 3097 3099 3099 3101 3101 3114 3119 3123 3125 3129 3134 3137 3140 3142 3145 3147 3151 3153 3156 3155 3158 3163 3163 3167 3170 3172 3174 3174 3176 3178 3179 3180 3182 3183
3083 3083 3083 3083 3083 3082 3083 3086 3089 3092 3095 3097 3097 3095 3110 3115 3119 3122 3127 3131 3136 3136 3140 3143 3145 3149 3153 3154 3155 3159 3161 3165 3166 3169 3172 3173 3175 3177 3178 3180 3181 3183 3184
3081 3081 3081 3080 3080 3079 3080 3081 3083 3084 3089 3088 3091 3096 3105 3112 3116 3121 3126 3131 3134 3136 3139 3142 3146 3149 3151 3153 3154 3156 3161 3165 3166 3169 3171 3174 3175 3177 3178 3180 3182 3183 3185
3079 3077 3076 3077 3078 3078 3079 3079 3079 3080 3083 3085 3085 3093 3103 3109 3113 3118 3121 3128 3132 3134 3137 3141 3145 3147 3149 3152 3154 3156 3160 3164 3166 3168 3171 3173 3175 3176 3178 3180 3182 3183 3184
3077 3074 3072 3072 3074 3074 3076 3077 3077 3077 3081 3085 3091 3096 3102 3105 3111 3115 3121 3126 3130 3132 3136 3140 3143 3144 3149 3152 3153 3155 3159 3163 3165 3168 3170 3172 3174 3176 3178 3179 3181 3182 3182
3075 3072 3068 3066 3068 3071 3072 3075 3076 3077 3081 3085 3088 3093 3099 3104 3109 3115 3120 3122 3127 3130 3134 3137 3141 3143 3147 3151 3152 3155 3157 3161 3163 3166 3168 3170 3173 3175 3177 3179 3179 3180 3181
3072 3069 3066 3063 3063 3067 3068 3072 3074 3077 3079 3082 3085 3088 3095 3100 3105 3110 3114 3119 3124 3127 3131 3135 3139 3143 3146 3150 3151 3153 3156 3160 3163 3165 3167 3169 3171 3173 3174 3176 3177 3178 3178
3070 3067 3064 3061 3060 3063 3065 3066 3070 3074 3077 3079 3082 3086 3091 3096 3101 3105 3108 3115 3120 3124 3128 3133 3137 3140 3144 3148 3150 3152 3155 3159 3162 3164 3166 3168 3170 3172 3173 3174 3176 3176 3175
3067 3066 3062 3059 3058 3060 3065 3067 3067 3068 3070 3073 3076 3082 3087 3093 3095 3101 3105 3111 3117 3121 3126 3130 3134 3137 3142 3146 3148 3150 3153 3156 3159 3162 3164 3166 3168 3169 3170 3171 3173 3173 3172
3064 3063 3061 3058 3056 3056 3058 3061 3065 3065 3064 3066 3072 3077 3081 3087 3091 3097 3100 3106 3111 3117 3123 3127 3132 3135 3138 3142 3145 3148 3150 3153 3155 3157 3159 3163 3164 3165 3166 3168 3170 3170 3169
3061 3060 3059 3057 3056 3055 3055 3056 3057 3057 3058 3061 3066 3072 3079 3083 3089 3093 3097 3102 3108 3112 3118 3123 3127 3131 3134 3138 3142 3144 3147 3150 3152 3155 3156 3156 3157 3158 3161 3163 3164 3165 3165
3060 3058 3057 3056 3055 3053 3053 3054 3054 3054 3056 3058 3063 3069 3075 3080 3085 3090 3093 3098 3103 3109 3112 3118 3124 3127 3131 3133 3138 3141 3144 3146 3149 3149 3151 3153 3154 3153 3154 3155 3158 3160 3161
3058 3057 3056 3055 3054 3052 3050 3052 3053 3055 3055 3055 3060 3066 3072 3077 3082 3087 3090 3096 3099 3104 3111 3117 3121 3124 3125 3131 3135 3137 3140 3143 3144 3146 3146 3147 3149 3150 3151 3152 3152 3152 3154
3057 3055 3054 3053 3053 3052 3050 3050 3051 3053 3054 3056 3062 3067 3071 3075 3079 3084 3089 3093 3097 3102 3109 3113 3117 3119 3124 3128 3132 3134 3137 3138 3139 3140 3141 3144 3143 3145 3146 3146 3147 3147 3147
3055 3055 3053 3052 3052 3051 3050 3050 3051 3052 3054 3056 3060 3064 3070 3073 3078 3080 3084 3089 3094 3100 3104 3110 3114 3117 3121 3124 3127 3130 3131 3133 3135 3135 3135 3138 3139 3139 3140 3140 3140 3140 3141
Wind_Speed
5 7 8 13 10 12 17 18 18 19 18 16 15 14 14 13 14 14 16 15 14 12 12 11 11 11 11 10 9 9 8 8 8 9 11 13 13 10 10 11 9 7 5
6 9 9 10 12 13 15 18 19 20 18 15 15 17 15 14 13 14 14 14 13 12 11 10 11 11 11 11 10 9 10 10 9 9 10 12 12 11 11 10 8 6 6
14 16 14 12 13 18 21 20 21 23 20 15 17 16 13 14 12 12 13 15 15 14 12 12 12 10 10 11 12 12 11 10 10 11 12 13 14 13 12 10 9 8 8
26 21 19 16 15 20 23 25 28 28 25 19 19 17 13 14 13 13 13 15 15 15 13 13 12 11 11 11 13 13 13 14 14 14 13 13 12 12 12 12 11 10 10
28 25 21 18 18 20 23 26 28 28 26 22 20 19 18 17 13 13 13 15 16 16 14 13 13 12 11 11 11 13 15 15 15 14 13 11 11 11 11 10 9 9 9
21 25 20 20 19 21 25 27 28 28 25 26 25 22 23 19 15 15 12 15 16 16 15 14 14 14 14 14 14 15 15 14 12 12 13 12 11 11 12 11 10 9 8
20 23 22 20 19 23 28 30 31 31 29 29 27 24 25 21 20 17 15 15 17 16 17 16 15 15 15 14 15 14 10 10 12 13 13 12 12 12 10 10 9 8 8
24 25 23 21 22 22 28 30 33 33 31 30 31 25 24 24 22 21 15 14 16 17 17 16 16 14 15 15 13 11 8 10 14 14 12 12 11 10 10 10 10 10 10
29 27 26 24 23 23 26 32 35 35 34 32 33 30 30 27 22 22 17 16 18 18 19 18 16 17 14 13 12 12 10 11 13 12 12 10 10 11 11 12 13 12 11
29 24 25 24 23 24 26 31 38 42 34 29 32 27 29 23 18 21 20 21 20 21 20 18 17 14 14 15 16 14 11 13 14 12 11 11 12 13 12 12 11 12 11
22 9 18 20 23 26 26 29 32 36 37 38 33 27 27 21 20 25 21 22 22 21 20 17 16 16 16 18 16 14 14 14 13 12 13 14 14 13 12 13 14 14 13
16 6 10 14 20 26 27 25 26 27 30 29 34 24 30 28 22 24 26 23 24 26 22 19 18 18 19 19 19 15 15 14 14 14 15 14 14 14 15 15 15 14 13
11 6 7 9 17 19 21 21 26 23 26 19 24 35 37 32 24 26 25 25 24 22 22 21 20 21 20 20 19 15 13 16 16 15 14 14 14 14 14 14 12 10 8
10 11 9 9 7 12 16 18 20 21 21 23 30 35 36 29 26 33 30 23 24 21 19 19 22 23 22 22 19 14 13 15 16 16 15 13 13 13 13 12 10 8 6
12 11 14 12 10 10 12 18 18 24 20 16 32 37 30 23 11 28 26 32 29 24 22 23 24 24 23 22 19 16 13 16 17 16 15 14 12 12 12 11 10 7 6
14 13 15 13 13 15 12 12 8 13 19 14 18 29 26 23 19 19 27 31 28 26 25 24 24 23 22 20 20 17 13 17 18 17 16 14 13 12 12 11 9 6 4
12 14 15 16 14 15 16 13 6 11 17 19 23 23 23 26 23 23 27 36 28 27 26 26 24 23 22 20 20 16 15 13 17 18 17 16 13 12 11 9 8 6 5
10 13 15 15 10 9 15 19 17 15 17 11 20 22 30 28 26 27 30 39 29 27 25 25 25 24 20 19 18 16 13 13 16 17 17 16 16 15 13 10 8 8 9
10 11 14 13 8 10 14 17 17 18 18 20 13 26 28 27 22 27 36 37 32 28 27 27 26 21 20 20 20 17 16 15 16 16 16 16 15 13 13 12 11 12 14
10 8 12 13 8 12 18 18 17 20 22 27 22 30 34 31 31 30 37 32 29 26 29 30 28 23 21 20 20 19 19 17 17 18 18 16 15 15 15 13 12 12 13
10 7 10 10 9 11 16 18 17 23 26 22 27 31 28 29 33 37 41 40 40 35 33 31 28 25 24 22 21 20 21 20 18 16 18 17 19 18 16 16 13 11 10
9 7 8 9 9 10 14 16 16 16 15 24 28 30 34 29 38 41 42 43 42 36 39 33 32 29 25 22 20 20 20 20 20 19 18 19 18 20 19 18 15 14 14
8 7 6 9 8 9 11 12 14 10 18 24 22 34 28 32 40 40 45 43 38 43 34 31 31 31 27 21 20 17 17 19 18 20 21 21 20 23 24 20 19 18 18
6 8 5 7 8 8 7 8 13 10 2 10 27 37 32 29 33 47 43 48 44 40 34 33 32 35 39 23 23 19 17 18 19 22 24 23 21 22 21 21 23 20 21
6 7 6 5 7 7 5 6 12 11 7 10 21 31 14 20 37 48 49 49 49 37 38 35 36 40 30 23 24 21 20 21 20 21 22 18 21 19 17 20 22 24 24
10 6 7 3 5 6 6 4 7 10 11 12 20 31 23 21 30 40 36 46 49 43 43 42 36 37 34 29 27 27 24 24 24 23 25 25 26 27 28 28 29 25 25
Wind_Direction
267 280 305 307 238 225 221 214 207 203 200 205 199 184 174 179 178 181 190 194 200 197 184 178 175 169 158 157 155 158 164 164 166 161 162 167 159 159 154 152 157 168 159
292 295 285 277 236 223 214 211 211 201 201 202 200 191 184 184 182 177 191 188 188 188 186 179 172 166 157 153 157 165 167 172 162 165 168 163 158 161 165 170 175 173 170
277 290 288 273 245 220 214 217 210 203 194 194 190 198 195 195 191 178 180 182 182 180 181 168 166 160 159 155 160 164 165 159 162 165 162 166 168 168 167 163 161 161 151
280 277 272 258 245 234 225 218 210 207 203 206 198 197 198 193 189 179 173 182 177 174 172 163 160 158 162 166 170 167 172 168 170 168 165 162 162 159 155 156 154 155 149
289 278 262 252 245 238 232 227 222 212 214 205 200 203 188 192 195 183 168 176 177 167 170 160 160 161 164 173 167 172 168 167 168 159 152 155 161 161 153 157 166 162 156
289 280 262 252 246 233 234 231 230 223 218 219 207 205 190 189 200 193 174 174 175 169 166 165 166 162 169 172 176 189 179 163 157 159 154 164 163 170 174 165 163 162 162
296 285 272 254 245 233 229 228 231 225 221 218 213 211 194 192 195 193 175 172 176 171 168 166 167 170 175 178 189 192 178 153 168 167 167 170 171 173 171 161 163 162 160
292 279 270 256 241 235 228 228 230 229 223 217 204 209 202 197 182 198 173 174 170 171 172 169 173 168 174 188 195 198 190 176 168 170 168 172 172 167 161 163 158 151 149
294 276 263 251 247 238 231 227 225 224 229 206 197 214 204 202 188 182 185 190 173 170 174 169 166 177 178 188 196 206 190 167 169 164 169 169 167 163 155 151 147 143 142
295 272 252 244 245 243 238 235 233 233 229 217 186 194 213 167 192 182 186 190 185 178 174 166 179 167 184 189 204 206 176 156 169 165 165 164 159 148 149 144 140 138 137
318 284 236 241 241 242 238 239 240 243 247 245 235 172 189 199 207 204 184 184 175 174 175 174 175 172 186 196 205 193 169 158 161 168 161 159 152 149 148 147 144 139 134
319 291 251 243 249 251 248 244 250 259 254 255 245 238 193 206 204 186 185 184 178 178 174 176 173 180 188 191 193 200 162 156 172 172 163 161 153 152 153 150 147 145 137
320 296 274 260 264 257 250 240 242 242 252 247 271 188 191 195 202 184 184 176 182 180 182 178 175 181 184 186 195 198 164 169 171 168 166 167 159 160 158 156 153 148 140
324 301 285 292 270 242 244 230 233 240 248 259 266 186 186 197 201 200 204 193 191 190 182 176 180 178 180 188 197 192 173 172 175 171 170 175 172 170 169 167 167 164 155
323 310 291 284 275 252 240 232 242 239 262 241 172 180 192 198 216 203 205 205 196 188 183 184 182 180 184 189 194 202 182 175 180 178 177 186 187 184 184 184 183 180 180
311 312 300 284 272 256 233 221 251 200 191 191 187 185 194 213 215 198 201 188 190 189 187 185 184 183 188 189 197 208 196 180 188 187 190 195 198 194 191 191 185 192 198
298 309 308 296 285 248 230 221 198 191 192 212 219 207 214 215 212 213 212 187 192 191 188 184 184 187 192 189 204 210 208 179 189 192 195 189 193 200 202 204 209 218 243
297 307 312 306 281 242 230 222 205 199 198 200 207 203 214 218 208 219 214 190 195 192 187 189 186 189 194 196 207 214 210 195 196 194 196 196 198 207 217 225 241 252 265
303 308 318 316 282 233 224 214 208 211 222 222 221 213 199 206 215 202 196 185 194 191 194 194 190 193 193 195 199 200 215 201 189 199 201 208 215 224 237 244 258 270 279
299 312 321 321 285 227 220 222 237 238 224 229 237 211 214 220 225 207 191 190 193 194 205 199 194 194 197 197 197 200 208 214 213 205 210 217 225 237 247 254 263 279 297
304 314 318 321 301 251 239 231 235 242 248 239 197 205 200 200 201 206 191 191 199 199 207 201 199 199 199 197 199 205 210 214 222 236 236 233 235 241 249 257 260 279 294
308 304 322 322 317 271 251 241 253 250 228 195 193 200 196 206 200 211 204 198 195 196 209 207 200 200 201 206 207 211 218 226 223 228 236 254 261 258 253 257 266 275 282
316 297 322 323 328 308 256 254 243 240 188 179 186 199 200 204 205 213 209 197 203 191 196 204 200 200 199 204 225 223 224 233 237 236 236 238 243 254 264 268 264 264 273
307 303 314 322 332 340 296 229 221 255 323 171 202 197 198 202 225 206 206 201 201 193 203 208 205 204 216 204 220 223 234 238 242 243 246 243 239 249 253 255 263 274 280
290 295 294 319 330 351 337 237 253 250 206 175 199 203 223 212 207 207 213 213 210 207 203 209 209 216 231 208 219 232 239 240 245 247 241 242 246 258 250 264 269 273 282
278 273 274 280 314 339 351 283 245 247 229 202 202 207 219 215 210 221 228 224 220 210 208 209 222 233 242 217 222 232 240 247 248 253 261 261 260 262 265 264 270 278 284